Mt. Pocono, PA

8:09 AM EST on December 13, 2019 (GMT -0500)
Pocono Mountains Municipal

Weather History for KMPO - September, 2019

Change the Weather History Date:

Friday, September 13, 2019

  Actual Average Record
Temperature  
Mean Temperature 56 °F 60 °F  
Max Temperature 61 °F 69 °F 85 °F (1952)
Min Temperature 51 °F 51 °F 33 °F (1943)
Degree Days  
Heating Degree Days 9 6  
Month to date heating degree days 42 53  
Since 1 July heating degree days 83 116  
Cooling Degree Days 0 1  
Month to date cooling degree days 19 13  
Year to date cooling degree days 337 309  
Growing Degree Days 6 (Base 50)    
Moisture  
Dew Point 51 °F    
Average Humidity 85    
Maximum Humidity 100    
Minimum Humidity 62    
Precipitation  
Precipitation 0.00 in 0.19 in 1.62 in (1944)
Month to date precipitation 0.84 2.14  
Year to date precipitation 35.77 33.12  
Sea Level Pressure  
Sea Level Pressure 30.40 in    
Wind  
Wind Speed 8 mph ()    
Max Wind Speed 17 mph    
Max Gust Speed 23 mph    
Visibility 10.0 miles    
Events      
T = Trace of Precipitation, MM = Missing Value Source: Averaged Metar Reports

Daily Weather History Graph

Daily Weather History Graph

Search for Another Location

Airport or City:

Astronomy

Sep. 13, 2019 Rise Set
Actual Time 6:39 AM EDT 7:14 PM EDT
Civil Twilight 6:12 AM EDT 7:42 PM EDT
Nautical Twilight 5:39 AM EDT 8:14 PM EDT
Astronomical Twilight 5:05 AM EDT 8:48 PM EDT
Moon 7:27 PM EDT 5:53 AM EDT
Length of Visible Light 13h 30m
Length of Day
12h 34m
Full, 100% of the Moon is Illuminated
Sep 13
Full
Sep 14
Full
Sep 21
Last Quarter
Sep 28
New
Oct 5
First Quarter

Hourly Weather History & Observations

Time (EDT) Temp. Dew Point Humidity Pressure Visibility Wind Dir Wind Speed Gust Speed Precip Events Conditions
12:40 AM 54.0 °F 53.1 °F 97% 30.32 in 10.0 mi ENE 6.9 mph - N/A   Overcast
12:53 AM 54.0 °F 53.1 °F 97% 30.31 in 10.0 mi ENE 8.1 mph - N/A   Overcast
1:24 AM 53.1 °F 53.1 °F 100% 30.33 in 10.0 mi East 5.8 mph - N/A   Overcast
1:53 AM 53.1 °F 52.0 °F 96% 30.33 in 10.0 mi Variable 6.9 mph - N/A   Overcast
2:27 AM 53.1 °F 52.0 °F 96% 30.34 in 10.0 mi Variable 5.8 mph - N/A   Overcast
2:51 AM 53.6 °F 51.8 °F 94% 30.34 in 10.0 mi Variable 5.8 mph - N/A   Overcast
2:53 AM 53.1 °F 52.0 °F 96% 30.33 in 10.0 mi Variable 6.9 mph - N/A   Overcast
3:35 AM 53.1 °F 52.0 °F 96% 30.34 in 10.0 mi Variable 5.8 mph - N/A   Overcast
3:53 AM 53.1 °F 52.0 °F 96% 30.34 in 10.0 mi East 5.8 mph - N/A   Overcast
4:53 AM 53.1 °F 52.0 °F 96% 30.35 in 10.0 mi ENE 8.1 mph - N/A   Overcast
5:49 AM 51.8 °F 51.8 °F 100% 30.37 in 10.0 mi East 9.2 mph - N/A   Overcast
5:53 AM 52.0 °F 52.0 °F 100% 30.37 in 10.0 mi East 6.9 mph - N/A   Overcast
6:17 AM 52.0 °F 52.0 °F 100% 30.38 in 10.0 mi East 6.9 mph - N/A   Overcast
6:53 AM 52.0 °F 51.1 °F 97% 30.40 in 10.0 mi Variable 5.8 mph - N/A   Overcast
7:53 AM 52.0 °F 51.1 °F 97% 30.43 in 10.0 mi ESE 8.1 mph - N/A   Overcast
8:53 AM 53.1 °F 50.0 °F 89% 30.45 in 10.0 mi East 6.9 mph - N/A   Overcast
9:53 AM 54.0 °F 48.0 °F 80% 30.46 in 10.0 mi East 10.4 mph 18.4 mph N/A   Overcast
10:53 AM 57.0 °F 46.9 °F 69% 30.45 in 10.0 mi ESE 12.7 mph 21.9 mph N/A   Overcast
11:53 AM 57.9 °F 48.0 °F 70% 30.46 in 10.0 mi East 10.4 mph 19.6 mph N/A   Overcast
12:53 PM 59.0 °F 46.9 °F 64% 30.46 in 10.0 mi ESE 11.5 mph 20.7 mph N/A   Overcast
1:53 PM 61.0 °F 50.0 °F 67% 30.45 in 10.0 mi ESE 10.4 mph 19.6 mph N/A   Overcast
2:53 PM 60.1 °F 50.0 °F 69% 30.45 in 10.0 mi SE 11.5 mph 19.6 mph N/A   Overcast
3:12 PM 60.1 °F 50.0 °F 69% 30.44 in 10.0 mi SE 12.7 mph - N/A   Overcast
3:50 PM 59.0 °F 50.0 °F 72% 30.43 in 10.0 mi SE 12.7 mph - N/A   Overcast
3:53 PM 60.1 °F 50.0 °F 69% 30.44 in 10.0 mi SE 11.5 mph - N/A   Overcast
4:12 PM 60.1 °F 50.0 °F 69% 30.44 in 10.0 mi SE 13.8 mph 18.4 mph N/A   Overcast
4:53 PM 59.0 °F 50.0 °F 72% 30.44 in 10.0 mi SE 13.8 mph 20.7 mph N/A   Overcast
5:53 PM 57.9 °F 50.0 °F 75% 30.44 in 10.0 mi SE 11.5 mph 20.7 mph N/A   Overcast
6:20 PM 57.9 °F 51.1 °F 78% 30.42 in 10.0 mi ESE 11.5 mph - N/A   Overcast
6:53 PM 57.0 °F 51.1 °F 81% 30.43 in 10.0 mi SE 12.7 mph - N/A   Overcast
7:26 PM 57.0 °F 50.0 °F 77% 30.42 in 10.0 mi SE 12.7 mph 21.9 mph N/A   Overcast
7:53 PM 55.9 °F 51.1 °F 84% 30.42 in 10.0 mi SE 11.5 mph 19.6 mph N/A   Overcast
8:53 PM 55.9 °F 51.1 °F 84% 30.43 in 10.0 mi SE 9.2 mph - N/A   Overcast
9:53 PM 55.0 °F 50.0 °F 83% 30.43 in 10.0 mi SE 12.7 mph 21.9 mph N/A   Overcast
10:53 PM 55.0 °F 50.0 °F 83% 30.41 in 10.0 mi SE 12.7 mph - N/A   Overcast
11:36 PM 55.0 °F 50.0 °F 83% 30.41 in 10.0 mi SE 8.1 mph - N/A   Overcast
11:53 PM 54.0 °F 48.9 °F 83% 30.40 in 10.0 mi SE 6.9 mph - N/A   Overcast